,,,PA_Meas_PMT16A,,PR_Meas_QMR101_102,,RH_Meas_QMH101,,SR_Meas_QMS101,,TA_Meas_QMH101,,GenWind,,GenWind,
date,time,status,PA,status,PR,status,RH,status,SR,status,TA,status,DirAvg,status,SpdAvg,
2009-09-17, 00:00:04,VALID,1009.88,VALID,0,VALID,97.9757,VALID,0,VALID,22.9147,VALID,82,VALID,0,
2009-09-17, 00:01:04,VALID,1009.92,VALID,0,VALID,97.9833,VALID,0,VALID,22.9359,VALID,82,VALID,0,
2009-09-17, 00:02:04,VALID,1009.93,VALID,0,VALID,97.9757,VALID,0,VALID,22.9554,VALID,82,VALID,0,
2009-09-17, 00:03:04,VALID,1009.94,VALID,0,VALID,97.9452,VALID,0,VALID,22.9554,VALID,57,VALID,0,
2009-09-17, 00:04:04,VALID,1009.94,VALID,0,VALID,97.9452,VALID,0,VALID,22.9554,VALID,43,VALID,0,
2009-09-17, 00:05:04,VALID,1009.98,VALID,0,VALID,97.9452,VALID,0,VALID,22.9749,VALID,43,VALID,0,
2009-09-17, 00:06:04,VALID,1009.98,VALID,0,VALID,97.9528,VALID,0,VALID,22.9536,VALID,43,VALID,0,
2009-09-17, 00:07:04,VALID,1009.98,VALID,0,VALID,97.9299,VALID,0,VALID,22.9943,VALID,300,VALID,0,
2009-09-17, 00:08:04,VALID,1010.02,VALID,0,VALID,97.9223,VALID,0,VALID,22.9926,VALID,300,VALID,0,
2009-09-17, 00:09:04,VALID,1010.03,VALID,0,VALID,97.9299,VALID,0,VALID,22.9731,VALID,300,VALID,0,
2009-09-17, 00:10:04,VALID,1010.04,VALID,0,VALID,97.9299,VALID,0,VALID,22.9926,VALID,309,VALID,0,
2009-09-17, 00:11:04,VALID,1010.08,VALID,0,VALID,97.9223,VALID,0,VALID,23.0121,VALID,60,VALID,0.692578,
2009-09-17, 00:12:04,VALID,1010.07,VALID,0,VALID,97.9299,VALID,0,VALID,23.0121,VALID,342,VALID,0.155078,
2009-09-17, 00:13:04,VALID,1010.09,VALID,0,VALID,97.9299,VALID,0,VALID,23.0121,VALID,297,VALID,0.122656,
2009-09-17, 00:14:04,VALID,1010.08,VALID,0,VALID,97.9223,VALID,0,VALID,23.0333,VALID,329,VALID,0.301953,
2009-09-17, 00:15:04,VALID,1010.08,VALID,0,VALID,97.9299,VALID,0,VALID,23.0333,VALID,11,VALID,0.00195313,
2009-09-17, 00:16:04,VALID,1010.08,VALID,0,VALID,97.9376,VALID,0,VALID,23.0121,VALID,11,VALID,0,
2009-09-17, 00:17:04,VALID,1010.07,VALID,0,VALID,97.9299,VALID,0,VALID,23.0333,VALID,11,VALID,0,
2009-09-17, 00:18:04,VALID,1010.08,VALID,0,VALID,97.9452,VALID,0,VALID,23.0333,VALID,8,VALID,0.0472656,
2009-09-17, 00:19:04,VALID,1010.04,VALID,0,VALID,97.9299,VALID,0,VALID,23.0528,VALID,279,VALID,0.617969,
2009-09-17, 00:20:04,VALID,1010.07,VALID,0,VALID,97.9071,VALID,0,VALID,23.0723,VALID,339,VALID,1.04453,
2009-09-17, 00:21:04,VALID,1010.07,VALID,0,VALID,97.8994,VALID,0,VALID,23.0723,VALID,309,VALID,0.028125,
2009-09-17, 00:22:04,VALID,1010.07,VALID,0,VALID,97.9071,VALID,0,VALID,23.0918,VALID,309,VALID,0,
2009-09-17, 00:23:04,VALID,1010.05,VALID,0,VALID,97.8994,VALID,0,VALID,23.09,VALID,316,VALID,0.564453,
2009-09-17, 00:24:04,VALID,1010.04,VALID,0,VALID,97.9071,VALID,0,VALID,23.1112,VALID,316,VALID,0.0667969,
2009-09-17, 00:25:04,VALID,1010.04,VALID,0,VALID,97.9071,VALID,0,VALID,23.0918,VALID,336,VALID,0.446094,
2009-09-17, 00:26:04,VALID,1010.05,VALID,0,VALID,97.9147,VALID,0,VALID,23.0918,VALID,340,VALID,0.0980469,
2009-09-17, 00:27:04,VALID,1010.04,VALID,0,VALID,97.9299,VALID,0,VALID,23.0918,VALID,340,VALID,0,
2009-09-17, 00:28:04,VALID,1010.03,VALID,0,VALID,97.9299,VALID,0,VALID,23.0918,VALID,340,VALID,0,
2009-09-17, 00:29:04,VALID,1010.01,VALID,0,VALID,97.9147,VALID,0,VALID,23.0705,VALID,297,VALID,0.566797,
2009-09-17, 00:30:04,VALID,1010.02,VALID,0,VALID,97.9071,VALID,0,VALID,23.0705,VALID,357,VALID,0.960938,
2009-09-17, 00:31:04,VALID,1010.01,VALID,0,VALID,97.8994,VALID,0,VALID,23.1112,VALID,21,VALID,0.216016,
2009-09-17, 00:32:04,VALID,1010,VALID,0,VALID,97.9299,VALID,0,VALID,23.09,VALID,284,VALID,0.553906,
2009-09-17, 00:33:04,VALID,1009.98,VALID,0,VALID,97.8918,VALID,0,VALID,23.1112,VALID,285,VALID,0.244531,
2009-09-17, 00:34:04,VALID,1009.97,VALID,0,VALID,97.9071,VALID,0,VALID,23.1112,VALID,3,VALID,0.378125,
2009-09-17, 00:35:04,VALID,1009.98,VALID,0,VALID,97.8994,VALID,0,VALID,23.1112,VALID,326,VALID,0.5875,
2009-09-17, 00:36:04,VALID,1009.96,VALID,0,VALID,97.8994,VALID,0,VALID,23.1112,VALID,290,VALID,0.458984,
2009-09-17, 00:37:04,VALID,1009.95,VALID,0,VALID,97.8994,VALID,0,VALID,23.1307,VALID,323,VALID,0.606641,
2009-09-17, 00:38:04,VALID,1009.93,VALID,0,VALID,97.8918,VALID,0,VALID,23.1095,VALID,302,VALID,0.578906,
2009-09-17, 00:39:04,VALID,1009.89,VALID,0,VALID,97.9071,VALID,0,VALID,23.1112,VALID,348,VALID,0.533203,
2009-09-17, 00:40:04,VALID,1009.86,VALID,0,VALID,97.8765,VALID,0,VALID,23.1307,VALID,277,VALID,0.344922,
2009-09-17, 00:41:04,VALID,1009.8,VALID,0,VALID,97.8994,VALID,0,VALID,23.1502,VALID,10,VALID,0.173438,
2009-09-17, 00:42:04,VALID,1009.79,VALID,0,VALID,97.8918,VALID,0,VALID,23.129,VALID,10,VALID,0.225781,
2009-09-17, 00:43:04,VALID,1009.77,VALID,0,VALID,97.8918,VALID,0.105969,VALID,23.1485,VALID,45,VALID,0.289063,
2009-09-17, 00:44:04,VALID,1009.75,VALID,0,VALID,97.9071,VALID,0.105969,VALID,23.1077,VALID,323,VALID,0.545703,
2009-09-17, 00:45:04,VALID,1009.71,VALID,0,VALID,97.9071,VALID,0,VALID,23.1077,VALID,8,VALID,0.883594,
2009-09-17, 00:46:04,VALID,1009.7,VALID,0,VALID,97.8918,VALID,0.105969,VALID,23.1077,VALID,310,VALID,0.111328,
2009-09-17, 00:47:04,VALID,1009.69,VALID,0,VALID,97.9147,VALID,0.105969,VALID,23.1095,VALID,318,VALID,0.382813,
2009-09-17, 00:48:04,VALID,1009.69,VALID,0,VALID,97.9147,VALID,0,VALID,23.129,VALID,318,VALID,0.475781,
2009-09-17, 00:49:04,VALID,1009.65,VALID,0,VALID,97.9147,VALID,0,VALID,23.129,VALID,300,VALID,0.717578,
2009-09-17, 00:50:04,VALID,1009.66,VALID,0,VALID,97.9147,VALID,0,VALID,23.0883,VALID,289,VALID,0.5625,
2009-09-17, 00:51:04,VALID,1009.66,VALID,0,VALID,97.9147,VALID,0.105969,VALID,23.1095,VALID,314,VALID,0.714453,
2009-09-17, 00:52:04,VALID,1009.66,VALID,0,VALID,97.9299,VALID,0,VALID,23.09,VALID,314,VALID,0.452734,
2009-09-17, 00:53:04,VALID,1009.64,VALID,0,VALID,97.9299,VALID,0.105969,VALID,23.0688,VALID,318,VALID,0.832812,
2009-09-17, 00:54:04,VALID,1009.63,VALID,0,VALID,97.9299,VALID,0.105969,VALID,23.0688,VALID,312,VALID,0.136328,
2009-09-17, 00:55:04,VALID,1009.59,VALID,0,VALID,97.9223,VALID,0.105969,VALID,23.09,VALID,300,VALID,0.797656,
2009-09-17, 00:56:04,VALID,1009.61,VALID,0,VALID,97.9223,VALID,0,VALID,23.0705,VALID,348,VALID,0.636719,
2009-09-17, 00:57:04,VALID,1009.57,VALID,0,VALID,97.9223,VALID,0.105969,VALID,23.09,VALID,39,VALID,0.214453,
2009-09-17, 00:58:04,VALID,1009.53,VALID,0,VALID,97.8994,VALID,0,VALID,23.0705,VALID,39,VALID,0,
2009-09-17, 00:59:04,VALID,1009.46,VALID,0,VALID,97.9223,VALID,0,VALID,23.0705,VALID,41,VALID,0.783203,
2009-09-17, 01:00:04,VALID,1009.45,VALID,0,VALID,97.9223,VALID,0,VALID,23.0723,VALID,349,VALID,0.448047,
2009-09-17, 01:01:04,VALID,1009.4,VALID,0,VALID,97.9299,VALID,0,VALID,23.0723,VALID,30,VALID,0.476563,
2009-09-17, 01:02:04,VALID,1009.38,VALID,0,VALID,97.9299,VALID,0,VALID,23.0723,VALID,30,VALID,0,
2009-09-17, 01:03:04,VALID,1009.37,VALID,0,VALID,97.9223,VALID,0,VALID,23.0528,VALID,60,VALID,0.524219,
2009-09-17, 01:04:04,VALID,1009.38,VALID,0,VALID,97.9223,VALID,0,VALID,23.0528,VALID,60,VALID,0.21875,
2009-09-17, 01:05:04,VALID,1009.35,VALID,0,VALID,97.9299,VALID,0,VALID,23.0528,VALID,61,VALID,0.280469,
2009-09-17, 01:06:04,VALID,1009.35,VALID,0,VALID,97.9147,VALID,0,VALID,23.0316,VALID,61,VALID,0.028125,
2009-09-17, 01:07:04,VALID,1009.33,VALID,0,VALID,97.9071,VALID,0,VALID,23.0528,VALID,61,VALID,0.0148437,
2009-09-17, 01:08:04,VALID,1009.32,VALID,0,VALID,97.9299,VALID,0,VALID,23.0511,VALID,61,VALID,0.181641,
2009-09-17, 01:09:04,VALID,1009.28,VALID,0,VALID,97.9376,VALID,0,VALID,23.0333,VALID,77,VALID,0.266797,
2009-09-17, 01:10:04,VALID,1009.29,VALID,0,VALID,97.9299,VALID,0,VALID,23.0121,VALID,56,VALID,0.194531,
2009-09-17, 01:11:04,VALID,1009.28,VALID,0,VALID,97.9528,VALID,0,VALID,23.0138,VALID,14,VALID,0.35625,
2009-09-17, 01:12:04,VALID,1009.27,VALID,0,VALID,97.9223,VALID,0,VALID,22.9926,VALID,63,VALID,0.425391,
2009-09-17, 01:13:04,VALID,1009.25,VALID,0,VALID,97.9147,VALID,0,VALID,23.0138,VALID,87,VALID,0.239453,
2009-09-17, 01:14:04,VALID,1009.23,VALID,0,VALID,97.9223,VALID,0,VALID,23.0121,VALID,87,VALID,0,
2009-09-17, 01:15:04,VALID,1009.22,VALID,0,VALID,97.9071,VALID,0,VALID,23.0333,VALID,87,VALID,0.00703125,
2009-09-17, 01:16:04,VALID,1009.22,VALID,0,VALID,97.9147,VALID,0,VALID,23.0333,VALID,84,VALID,0.0257812,
2009-09-17, 01:17:04,VALID,1009.19,VALID,0,VALID,97.9299,VALID,0,VALID,23.0333,VALID,84,VALID,0,
2009-09-17, 01:18:04,VALID,1009.21,VALID,0,VALID,97.9147,VALID,0,VALID,23.0333,VALID,84,VALID,0,
2009-09-17, 01:19:04,VALID,1009.2,VALID,0,VALID,97.8994,VALID,0,VALID,23.0333,VALID,84,VALID,0.117969,
2009-09-17, 01:20:04,VALID,1009.21,VALID,0,VALID,97.9223,VALID,0,VALID,23.0333,VALID,84,VALID,0.040625,
2009-09-17, 01:21:04,VALID,1009.23,VALID,0,VALID,97.9147,VALID,0,VALID,23.0121,VALID,84,VALID,0,
2009-09-17, 01:22:04,VALID,1009.23,VALID,0,VALID,97.9147,VALID,0,VALID,23.0333,VALID,84,VALID,0,
2009-09-17, 01:23:04,VALID,1009.22,VALID,0,VALID,97.9223,VALID,0,VALID,23.0138,VALID,80,VALID,0.127734,
2009-09-17, 01:24:04,VALID,1009.24,VALID,0,VALID,97.9071,VALID,0,VALID,23.0138,VALID,334,VALID,0.407422,
2009-09-17, 01:25:04,VALID,1009.23,VALID,0,VALID,97.9147,VALID,0,VALID,23.0121,VALID,341,VALID,0.0242187,
2009-09-17, 01:26:04,VALID,1009.24,VALID,0,VALID,97.8918,VALID,0,VALID,23.0333,VALID,341,VALID,0,
2009-09-17, 01:27:04,VALID,1009.26,VALID,0,VALID,97.9147,VALID,0,VALID,22.9926,VALID,341,VALID,0.00234375,
2009-09-17, 01:28:04,VALID,1009.27,VALID,0,VALID,97.9147,VALID,0,VALID,23.0121,VALID,341,VALID,0,
2009-09-17, 01:29:04,VALID,1009.28,VALID,0,VALID,97.8994,VALID,0,VALID,22.9926,VALID,341,VALID,0,
2009-09-17, 01:30:04,VALID,1009.24,VALID,0,VALID,97.8918,VALID,0,VALID,23.0333,VALID,341,VALID,0,
2009-09-17, 01:31:04,VALID,1009.26,VALID,0,VALID,97.8918,VALID,0,VALID,22.9926,VALID,341,VALID,0,
2009-09-17, 01:32:04,VALID,1009.25,VALID,0,VALID,97.9147,VALID,0,VALID,22.9926,VALID,341,VALID,0,
2009-09-17, 01:33:04,VALID,1009.24,VALID,0,VALID,97.9223,VALID,0.105969,VALID,22.9519,VALID,341,VALID,0,
2009-09-17, 01:34:04,VALID,1009.22,VALID,0,VALID,97.9071,VALID,0.105969,VALID,22.9926,VALID,341,VALID,0,
2009-09-17, 01:35:04,VALID,1009.23,VALID,0,VALID,97.8994,VALID,0.105969,VALID,23.0121,VALID,341,VALID,0,
2009-09-17, 01:36:04,VALID,1009.2,VALID,0,VALID,97.9147,VALID,0.105969,VALID,22.9714,VALID,341,VALID,0,
2009-09-17, 01:37:04,VALID,1009.2,VALID,0,VALID,97.8918,VALID,0.105969,VALID,23.0121,VALID,341,VALID,0,
2009-09-17, 01:38:04,VALID,1009.2,VALID,0,VALID,97.8994,VALID,0.105969,VALID,23.0121,VALID,341,VALID,0,
2009-09-17, 01:39:04,VALID,1009.21,VALID,0,VALID,97.9071,VALID,0,VALID,22.9714,VALID,341,VALID,0,
2009-09-17, 01:40:04,VALID,1009.16,VALID,0,VALID,97.9147,VALID,0.105969,VALID,22.9926,VALID,341,VALID,0.173828,
2009-09-17, 01:41:04,VALID,1009.2,VALID,0,VALID,97.8994,VALID,0.105969,VALID,22.9731,VALID,56,VALID,0.185156,
2009-09-17, 01:42:04,VALID,1009.18,VALID,0,VALID,97.9223,VALID,0,VALID,22.9731,VALID,56,VALID,0,
2009-09-17, 01:43:04,VALID,1009.14,VALID,0,VALID,97.9071,VALID,0,VALID,22.9943,VALID,60,VALID,0,
2009-09-17, 01:44:04,VALID,1009.17,VALID,0,VALID,97.9071,VALID,0.105969,VALID,22.9536,VALID,73,VALID,0,
2009-09-17, 01:45:04,VALID,1009.18,VALID,0,VALID,97.9299,VALID,0,VALID,22.9536,VALID,96,VALID,0.640234,
2009-09-17, 01:46:04,VALID,1009.18,VALID,0,VALID,97.9147,VALID,0.105969,VALID,22.9536,VALID,96,VALID,0.562109,
2009-09-17, 01:47:04,VALID,1009.18,VALID,0,VALID,97.9147,VALID,0.105969,VALID,22.9731,VALID,96,VALID,0.18125,
2009-09-17, 01:48:04,VALID,1009.21,VALID,0,VALID,97.9071,VALID,0.105969,VALID,22.9926,VALID,96,VALID,0,
2009-09-17, 01:49:04,VALID,1009.22,VALID,0,VALID,97.8994,VALID,0.105969,VALID,22.9714,VALID,96,VALID,0,
2009-09-17, 01:50:04,VALID,1009.25,VALID,0,VALID,97.8994,VALID,0.105969,VALID,22.9909,VALID,96,VALID,0,
2009-09-17, 01:51:04,VALID,1009.27,VALID,0,VALID,97.8842,VALID,0.105969,VALID,23.0121,VALID,96,VALID,0,
2009-09-17, 01:52:04,VALID,1009.27,VALID,0,VALID,97.8689,VALID,0.105969,VALID,23.0316,VALID,96,VALID,0,
2009-09-17, 01:53:04,VALID,1009.3,VALID,0,VALID,97.8689,VALID,0,VALID,23.0316,VALID,96,VALID,0,
2009-09-17, 01:54:04,VALID,1009.34,VALID,0,VALID,97.8918,VALID,0.105969,VALID,22.9909,VALID,96,VALID,0,
2009-09-17, 01:55:04,VALID,1009.32,VALID,0,VALID,97.8994,VALID,0.105969,VALID,22.9714,VALID,96,VALID,0,
2009-09-17, 01:56:04,VALID,1009.33,VALID,0,VALID,97.8765,VALID,0,VALID,23.0316,VALID,48,VALID,0,
2009-09-17, 01:57:04,VALID,1009.31,VALID,0,VALID,97.8613,VALID,0.105969,VALID,23.0511,VALID,48,VALID,0,
2009-09-17, 01:58:04,VALID,1009.32,VALID,0,VALID,97.8765,VALID,0,VALID,23.0316,VALID,48,VALID,0,
2009-09-17, 01:59:04,VALID,1009.35,VALID,0,VALID,97.8765,VALID,0.105969,VALID,23.0298,VALID,48,VALID,0,
2009-09-17, 02:00:04,VALID,1009.35,VALID,0,VALID,97.8765,VALID,0.105969,VALID,23.0103,VALID,48,VALID,0,
2009-09-17, 02:01:04,VALID,1009.34,VALID,0,VALID,97.8918,VALID,0.105969,VALID,23.0511,VALID,351,VALID,0,
2009-09-17, 02:02:04,VALID,1009.36,VALID,0,VALID,97.8994,VALID,0.105969,VALID,23.0511,VALID,351,VALID,0,
2009-09-17, 02:03:04,VALID,1009.35,VALID,0,VALID,97.8613,VALID,0.105969,VALID,23.0511,VALID,349,VALID,0,
2009-09-17, 02:04:04,VALID,1009.36,VALID,0,VALID,97.8689,VALID,0.105969,VALID,23.0493,VALID,349,VALID,0,
2009-09-17, 02:05:04,VALID,1009.35,VALID,0,VALID,97.8613,VALID,0.105969,VALID,23.09,VALID,349,VALID,0,
2009-09-17, 02:06:04,VALID,1009.36,VALID,0,VALID,97.8537,VALID,0.105969,VALID,23.1095,VALID,349,VALID,0,
2009-09-17, 02:07:04,VALID,1009.35,VALID,0,VALID,97.8537,VALID,0,VALID,23.1095,VALID,349,VALID,0,
2009-09-17, 02:08:04,VALID,1009.33,VALID,0,VALID,97.8613,VALID,0.105969,VALID,23.129,VALID,349,VALID,0,
2009-09-17, 02:09:04,VALID,1009.32,VALID,0,VALID,97.8537,VALID,0.105969,VALID,23.129,VALID,349,VALID,0,
2009-09-17, 02:10:04,VALID,1009.27,VALID,0,VALID,97.8842,VALID,0.105969,VALID,23.0883,VALID,349,VALID,0,
2009-09-17, 02:11:04,VALID,1009.26,VALID,0,VALID,97.8918,VALID,0,VALID,23.1112,VALID,349,VALID,0,
2009-09-17, 02:12:04,VALID,1009.26,VALID,0,VALID,97.8994,VALID,0.105969,VALID,23.0688,VALID,349,VALID,0,
2009-09-17, 02:13:04,VALID,1009.23,VALID,0,VALID,97.9071,VALID,0.105969,VALID,23.09,VALID,349,VALID,0,
2009-09-17, 02:14:04,VALID,1009.24,VALID,0,VALID,97.8918,VALID,0.105969,VALID,23.0688,VALID,349,VALID,0,
2009-09-17, 02:15:04,VALID,1009.21,VALID,0,VALID,97.9071,VALID,0.105969,VALID,23.0705,VALID,349,VALID,0,
2009-09-17, 02:16:04,VALID,1009.2,VALID,0,VALID,97.8842,VALID,0.105969,VALID,23.0705,VALID,349,VALID,0,
2009-09-17, 02:17:04,VALID,1009.21,VALID,0,VALID,97.8689,VALID,0.105969,VALID,23.0688,VALID,293,VALID,0.200781,
2009-09-17, 02:18:04,VALID,1009.21,VALID,0,VALID,97.8613,VALID,0.105969,VALID,23.0883,VALID,268,VALID,0.345313,
2009-09-17, 02:19:04,VALID,1009.2,VALID,0,VALID,97.8689,VALID,0.105969,VALID,23.1095,VALID,254,VALID,0.423047,
2009-09-17, 02:20:04,VALID,1009.23,VALID,0,VALID,97.8689,VALID,0.105969,VALID,23.0883,VALID,253,VALID,0.247266,
2009-09-17, 02:21:04,VALID,1009.24,VALID,0,VALID,97.8689,VALID,0.105969,VALID,23.0688,VALID,253,VALID,0.326562,
2009-09-17, 02:22:04,VALID,1009.23,VALID,0,VALID,97.8918,VALID,0.105969,VALID,23.09,VALID,253,VALID,0.105859,
2009-09-17, 02:23:04,VALID,1009.26,VALID,0,VALID,97.8842,VALID,0.105969,VALID,23.0688,VALID,252,VALID,0,
2009-09-17, 02:24:04,VALID,1009.25,VALID,0,VALID,97.8765,VALID,0.105969,VALID,23.0688,VALID,252,VALID,0,
2009-09-17, 02:25:04,VALID,1009.25,VALID,0,VALID,97.8765,VALID,0.105969,VALID,23.0688,VALID,252,VALID,0,
2009-09-17, 02:26:04,VALID,1009.21,VALID,0,VALID,97.8842,VALID,0.105969,VALID,23.09,VALID,252,VALID,0,
2009-09-17, 02:27:04,VALID,1009.21,VALID,0,VALID,97.8842,VALID,0.105969,VALID,23.09,VALID,252,VALID,0,
2009-09-17, 02:28:04,VALID,1009.22,VALID,0,VALID,97.8918,VALID,0.105969,VALID,23.09,VALID,252,VALID,0,
2009-09-17, 02:29:04,VALID,1009.2,VALID,0,VALID,97.9071,VALID,0.105969,VALID,23.0688,VALID,252,VALID,0,
2009-09-17, 02:30:04,VALID,1009.21,VALID,0,VALID,97.9147,VALID,0.105969,VALID,23.0493,VALID,252,VALID,0,
2009-09-17, 02:31:04,VALID,1009.21,VALID,0,VALID,97.9071,VALID,0.105969,VALID,23.0705,VALID,252,VALID,0,
2009-09-17, 02:32:04,VALID,1009.18,VALID,0,VALID,97.9147,VALID,0,VALID,23.0705,VALID,252,VALID,0,
2009-09-17, 02:33:04,VALID,1009.16,VALID,0,VALID,97.8994,VALID,0.105969,VALID,23.0705,VALID,252,VALID,0,
2009-09-17, 02:34:04,VALID,1009.16,VALID,0,VALID,97.8765,VALID,0.105969,VALID,23.0511,VALID,252,VALID,0,
2009-09-17, 02:35:04,VALID,1009.13,VALID,0,VALID,97.8613,VALID,0.105969,VALID,23.0493,VALID,252,VALID,0,
2009-09-17, 02:36:04,VALID,1009.13,VALID,0,VALID,97.8918,VALID,0.105969,VALID,23.0511,VALID,252,VALID,0,
2009-09-17, 02:37:04,VALID,1009.06,VALID,0,VALID,97.8918,VALID,0.105969,VALID,23.0298,VALID,252,VALID,0,
2009-09-17, 02:38:04,VALID,1009.07,VALID,0,VALID,97.8918,VALID,0.105969,VALID,23.0316,VALID,252,VALID,0,
2009-09-17, 02:39:04,VALID,1009.03,VALID,0,VALID,97.8842,VALID,0,VALID,23.0511,VALID,252,VALID,0,
2009-09-17, 02:40:04,VALID,1008.97,VALID,0,VALID,97.8765,VALID,0,VALID,23.0511,VALID,252,VALID,0,
2009-09-17, 02:41:04,VALID,1008.97,VALID,0,VALID,97.8842,VALID,0.105969,VALID,23.0511,VALID,252,VALID,0,
2009-09-17, 02:42:04,VALID,1008.92,VALID,0,VALID,97.8918,VALID,0.105969,VALID,23.0511,VALID,252,VALID,0,
2009-09-17, 02:43:04,VALID,1008.9,VALID,0,VALID,97.8765,VALID,0.105969,VALID,23.0705,VALID,252,VALID,0,
2009-09-17, 02:44:04,VALID,1008.91,VALID,0,VALID,97.8842,VALID,0.105969,VALID,23.0511,VALID,252,VALID,0,
2009-09-17, 02:45:04,VALID,1008.88,VALID,0,VALID,97.8918,VALID,0.105969,VALID,23.0316,VALID,252,VALID,0,
2009-09-17, 02:46:04,VALID,1008.9,VALID,0,VALID,97.8994,VALID,0.105969,VALID,23.0121,VALID,252,VALID,0,
2009-09-17, 02:47:04,VALID,1008.87,VALID,0,VALID,97.8918,VALID,0,VALID,22.9909,VALID,252,VALID,0,
2009-09-17, 02:48:04,VALID,1008.87,VALID,0,VALID,97.8994,VALID,0.105969,VALID,23.0121,VALID,252,VALID,0,
2009-09-17, 02:49:04,VALID,1008.89,VALID,0,VALID,97.8994,VALID,0.105969,VALID,23.0121,VALID,252,VALID,0,
2009-09-17, 02:50:04,VALID,1008.88,VALID,0,VALID,97.8994,VALID,0.105969,VALID,22.9926,VALID,252,VALID,0,
2009-09-17, 02:51:04,VALID,1008.88,VALID,0,VALID,97.9147,VALID,0.105969,VALID,22.9519,VALID,340,VALID,0,
2009-09-17, 02:52:05,VALID,1008.9,VALID,0,VALID,97.9147,VALID,0.105969,VALID,22.9926,VALID,340,VALID,0,
2009-09-17, 02:53:05,VALID,1008.93,VALID,0,VALID,97.9071,VALID,0.105969,VALID,22.9731,VALID,340,VALID,0,
2009-09-17, 02:54:05,VALID,1008.92,VALID,0,VALID,97.9299,VALID,0.105969,VALID,22.9731,VALID,340,VALID,0,
2009-09-17, 02:55:05,VALID,1008.93,VALID,0,VALID,97.9071,VALID,0.105969,VALID,22.9926,VALID,340,VALID,0,
2009-09-17, 02:56:05,VALID,1008.93,VALID,0,VALID,97.8994,VALID,0.105969,VALID,22.9731,VALID,340,VALID,0,
2009-09-17, 02:57:05,VALID,1008.9,VALID,0,VALID,97.9071,VALID,0,VALID,22.9714,VALID,340,VALID,0,
2009-09-17, 02:58:05,VALID,1008.89,VALID,0,VALID,97.8918,VALID,0,VALID,22.9926,VALID,340,VALID,0,
2009-09-17, 02:59:05,VALID,1008.86,VALID,0,VALID,97.8689,VALID,0,VALID,22.9731,VALID,340,VALID,0,
2009-09-17, 03:00:05,VALID,1008.82,VALID,0,VALID,97.8842,VALID,0.105969,VALID,22.9926,VALID,340,VALID,0,
2009-09-17, 03:01:05,VALID,1008.83,VALID,0,VALID,97.8842,VALID,0.105969,VALID,22.9926,VALID,340,VALID,0,
2009-09-17, 03:02:05,VALID,1008.81,VALID,0,VALID,97.8918,VALID,0,VALID,22.9926,VALID,340,VALID,0,
2009-09-17, 03:03:05,VALID,1008.81,VALID,0,VALID,97.8689,VALID,0.105969,VALID,22.9926,VALID,340,VALID,0,
2009-09-17, 03:04:05,VALID,1008.8,VALID,0,VALID,97.8689,VALID,0,VALID,22.9926,VALID,340,VALID,0,
2009-09-17, 03:05:05,VALID,1008.8,VALID,0,VALID,97.8765,VALID,0,VALID,22.9926,VALID,340,VALID,0,
2009-09-17, 03:06:05,VALID,1008.8,VALID,0,VALID,97.8689,VALID,0,VALID,23.0121,VALID,340,VALID,0,
2009-09-17, 03:07:05,VALID,1008.77,VALID,0,VALID,97.8537,VALID,0,VALID,23.0121,VALID,340,VALID,0,
2009-09-17, 03:08:05,VALID,1008.76,VALID,0,VALID,97.8765,VALID,0,VALID,22.9909,VALID,340,VALID,0,
2009-09-17, 03:09:05,VALID,1008.75,VALID,0,VALID,97.8918,VALID,0.105969,VALID,23.0121,VALID,340,VALID,0,
2009-09-17, 03:10:05,VALID,1008.73,VALID,0,VALID,97.8842,VALID,0,VALID,23.0121,VALID,340,VALID,0,
2009-09-17, 03:11:05,VALID,1008.74,VALID,0,VALID,97.8537,VALID,0.105969,VALID,23.0121,VALID,340,VALID,0,
2009-09-17, 03:12:05,VALID,1008.72,VALID,0,VALID,97.8537,VALID,0.105969,VALID,23.0121,VALID,340,VALID,0,
2009-09-17, 03:13:05,VALID,1008.71,VALID,0,VALID,97.8689,VALID,0,VALID,22.9926,VALID,340,VALID,0,
2009-09-17, 03:14:05,VALID,1008.73,VALID,0,VALID,97.8537,VALID,0.105969,VALID,22.9926,VALID,340,VALID,0,
2009-09-17, 03:15:05,VALID,1008.75,VALID,0,VALID,97.8613,VALID,0,VALID,23.0121,VALID,340,VALID,0,
2009-09-17, 03:16:05,VALID,1008.76,VALID,0,VALID,97.8613,VALID,0,VALID,23.0316,VALID,340,VALID,0,
2009-09-17, 03:17:05,VALID,1008.79,VALID,0,VALID,97.8689,VALID,0.105969,VALID,23.0121,VALID,340,VALID,0,
2009-09-17, 03:18:05,VALID,1008.77,VALID,0,VALID,97.8689,VALID,0,VALID,23.0316,VALID,340,VALID,0,
2009-09-17, 03:19:05,VALID,1008.77,VALID,0,VALID,97.8384,VALID,0.105969,VALID,23.0511,VALID,340,VALID,0,
2009-09-17, 03:20:05,VALID,1008.79,VALID,0,VALID,97.8537,VALID,0.105969,VALID,23.0298,VALID,340,VALID,0,
2009-09-17, 03:21:05,VALID,1008.79,VALID,0,VALID,97.8689,VALID,0.105969,VALID,23.0298,VALID,340,VALID,0,
2009-09-17, 03:22:05,VALID,1008.78,VALID,0,VALID,97.8613,VALID,0.105969,VALID,23.0298,VALID,340,VALID,0,
2009-09-17, 03:23:05,VALID,1008.78,VALID,0,VALID,97.8613,VALID,0.105969,VALID,23.0511,VALID,340,VALID,0,
2009-09-17, 03:24:05,VALID,1008.73,VALID,0,VALID,97.846,VALID,0,VALID,23.0493,VALID,340,VALID,0,
2009-09-17, 03:25:05,VALID,1008.71,VALID,0,VALID,97.8613,VALID,0,VALID,23.09,VALID,340,VALID,0,
2009-09-17, 03:26:05,VALID,1008.7,VALID,0,VALID,97.8537,VALID,0,VALID,23.09,VALID,340,VALID,0,
2009-09-17, 03:27:05,VALID,1008.67,VALID,0,VALID,97.8689,VALID,0.105969,VALID,23.0298,VALID,340,VALID,0,
2009-09-17, 03:28:05,VALID,1008.64,VALID,0,VALID,97.8842,VALID,0.105969,VALID,23.0511,VALID,340,VALID,0,
2009-09-17, 03:29:05,VALID,1008.63,VALID,0,VALID,97.8842,VALID,0,VALID,23.0316,VALID,340,VALID,0,
2009-09-17, 03:30:05,VALID,1008.62,VALID,0,VALID,97.8765,VALID,0,VALID,23.0121,VALID,202,VALID,0,
2009-09-17, 03:31:05,VALID,1008.63,VALID,0,VALID,97.8613,VALID,0,VALID,23.0121,VALID,200,VALID,0.725781,
2009-09-17, 03:32:05,VALID,1008.65,VALID,0,VALID,97.846,VALID,0.105969,VALID,23.0705,VALID,200,VALID,0.571484,
2009-09-17, 03:33:05,VALID,1008.62,VALID,0,VALID,97.846,VALID,0,VALID,23.0511,VALID,200,VALID,0.483594,
2009-09-17, 03:34:05,VALID,1008.63,VALID,0,VALID,97.8689,VALID,0,VALID,23.0705,VALID,194,VALID,0.414453,
2009-09-17, 03:35:05,VALID,1008.69,VALID,0,VALID,97.846,VALID,0,VALID,23.0705,VALID,194,VALID,0.451172,
2009-09-17, 03:36:05,VALID,1008.7,VALID,0,VALID,97.8537,VALID,0.105969,VALID,23.0298,VALID,195,VALID,0.530859,
2009-09-17, 03:37:05,VALID,1008.73,VALID,0,VALID,97.8384,VALID,0.105969,VALID,23.0705,VALID,196,VALID,0.345703,
2009-09-17, 03:38:05,VALID,1008.72,VALID,0,VALID,97.846,VALID,0,VALID,23.0705,VALID,196,VALID,0.364844,
2009-09-17, 03:39:05,VALID,1008.79,VALID,0,VALID,97.8613,VALID,0.105969,VALID,23.0493,VALID,196,VALID,0.242188,
2009-09-17, 03:40:05,VALID,1008.83,VALID,0,VALID,97.8689,VALID,0,VALID,23.0511,VALID,196,VALID,0.223438,
2009-09-17, 03:41:05,VALID,1008.85,VALID,0,VALID,97.8384,VALID,0,VALID,23.0493,VALID,196,VALID,0.295703,
2009-09-17, 03:42:05,VALID,1008.91,VALID,0,VALID,97.8537,VALID,0,VALID,23.0511,VALID,196,VALID,0.232812,
2009-09-17, 03:43:05,VALID,1008.92,VALID,0,VALID,97.8613,VALID,0.105969,VALID,23.0316,VALID,148,VALID,0.534375,
2009-09-17, 03:44:05,VALID,1008.94,VALID,0,VALID,97.8689,VALID,0,VALID,23.0511,VALID,148,VALID,0.180078,
2009-09-17, 03:45:05,VALID,1008.94,VALID,0,VALID,97.846,VALID,0,VALID,23.0511,VALID,146,VALID,0.278125,
2009-09-17, 03:46:05,VALID,1008.97,VALID,0,VALID,97.8537,VALID,0.105969,VALID,23.0511,VALID,129,VALID,0.489062,
2009-09-17, 03:47:05,VALID,1008.95,VALID,0,VALID,97.8537,VALID,0,VALID,23.0705,VALID,97,VALID,0.541406,